Lid_Strength_Index
16 15 15 14 14 13 11 7 6 6 6 6 7 7 7 7 7 6 6 6 6 6 6 6 6 4 3 3 4 5 5 7 7 8 8 8 8 8 8 7 7 7 7
18 17 16 16 16 15 14 11 7 6 6 6 7 7 7 7 7 7 7 7 7 7 7 7 6 5 4 4 4 5 6 7 7 8 8 9 8 8 8 8 8 8 8
19 19 18 18 17 17 16 13 10 7 6 7 8 9 8 8 8 8 8 9 8 8 7 7 7 6 4 4 4 5 5 6 8 7 7 9 9 9 8 9 9 9 8
20 20 19 19 18 18 16 15 13 12 9 8 7 8 7 8 7 7 8 8 9 8 8 8 7 6 5 5 4 5 5 5 7 8 8 8 8 9 10 9 9 9 10
21 21 20 19 19 18 18 16 15 15 13 10 9 8 8 9 9 9 8 9 9 9 9 8 8 8 7 5 5 5 6 5 6 7 8 9 8 9 9 10 10 10 10
21 21 20 20 20 19 19 18 17 17 16 14 12 10 9 9 10 10 10 9 10 10 9 9 9 8 8 7 6 5 6 6 6 7 8 8 8 9 9 10 11 10 10
22 22 22 21 21 21 20 19 18 18 17 16 15 14 13 10 10 10 11 11 11 10 10 10 10 9 9 8 7 7 6 6 7 7 7 8 8 8 8 9 11 10 10
22 22 22 22 21 21 21 20 20 19 19 18 17 16 16 14 12 11 11 11 11 10 11 10 10 10 10 9 9 8 7 7 7 7 8 7 8 9 8 8 10 11 11
22 22 22 22 21 21 21 21 21 20 19 19 18 18 17 16 16 14 12 12 11 11 10 10 10 10 10 10 9 9 9 8 8 8 8 8 8 8 9 9 9 8 10
22 22 22 21 21 21 20 20 20 20 20 19 18 18 18 17 16 16 16 14 12 12 11 11 11 11 10 10 10 10 10 10 10 10 10 10 10 9 9 9 9 10 9
23 23 22 21 21 21 20 20 20 20 21 20 19 19 18 18 18 17 17 16 15 13 12 12 11 11 11 11 11 10 10 11 10 11 11 10 10 10 10 11 11 11 11
23 23 22 22 22 21 21 21 21 21 20 20 19 20 19 19 19 19 18 17 17 15 15 12 12 12 11 11 11 11 11 11 11 11 11 11 11 11 11 11 11 11 12
24 23 23 23 22 22 21 21 21 21 20 20 20 20 20 20 21 20 19 18 18 17 16 15 14 12 13 12 12 12 12 12 12 12 12 12 12 12 12 12 12 12 12
25 25 24 24 23 22 22 21 21 20 19 20 20 21 21 21 21 20 20 20 19 18 18 17 17 16 13 13 13 13 13 12 12 12 12 12 12 12 12 13 13 13 13
26 25 25 24 23 23 22 21 21 20 20 20 20 21 20 20 20 21 21 20 20 20 19 18 18 17 16 14 14 14 14 14 13 13 12 12 12 12 12 12 13 13 13
25 25 25 24 23 23 22 21 21 20 19 20 21 20 20 21 21 21 21 20 21 21 20 20 18 18 17 13 12 13 14 14 14 14 14 13 12 12 10 10 11 12 13
25 25 24 24 23 22 21 22 21 19 19 19 19 20 21 21 21 19 20 21 21 20 20 20 19 19 19 14 13 13 15 16 14 14 14 14 13 12 13 11 10 10 10
24 24 24 23 22 22 21 21 20 20 20 20 19 20 20 20 20 20 20 20 19 19 19 19 19 19 19 16 14 14 16 16 16 16 16 14 14 13 13 13 14 13 13
24 24 23 24 23 23 22 23 22 21 21 21 20 20 19 20 20 20 21 20 20 20 19 18 18 19 18 16 16 15 16 16 16 16 16 15 15 14 12 13 14 14 14
22 22 21 21 23 22 22 22 21 21 21 19 20 19 19 20 20 20 19 19 19 20 19 19 19 18 19 17 15 15 15 16 16 15 15 14 13 13 12 12 13 14 14
21 21 21 22 21 20 20 21 20 20 19 19 19 19 19 20 19 19 19 19 19 19 20 20 20 19 19 18 15 14 15 15 15 15 15 14 13 12 12 11 12 13 12
21 20 20 20 19 19 19 20 20 19 19 19 19 19 19 19 18 19 19 18 18 19 19 19 19 18 18 17 15 14 14 13 14 15 15 14 13 12 12 12 11 11 10
20 19 20 20 19 19 19 20 20 19 19 20 20 20 19 19 18 19 18 19 19 20 20 20 20 19 17 16 14 13 12 12 13 13 12 11 11 11 11 11 10 10 11
20 20 20 21 21 20 19 20 20 19 20 21 20 20 20 19 18 19 18 19 19 20 20 20 19 18 17 16 15 15 14 13 13 12 13 12 11 10 9 11 9 10 9
20 20 21 21 21 20 20 20 19 20 21 21 20 20 20 20 19 19 19 19 18 17 18 17 17 18 17 15 13 12 13 13 12 11 13 14 14 14 13 12 12 10 10
19 20 20 20 20 20 20 20 19 20 21 21 20 20 20 20 19 19 19 16 15 14 13 12 13 13 12 11 10 10 9 9 8 10 11 13 13 14 14 13 12 11 10